SCP
0 0 0 0 0 0 0 0 0 0 0 0 0 0 0 0 0 0 0 0 0 1 1 1 2 2 2 2 2 2 2 2 2 2 2 2 2 2 3 3 2 2 1 1 1 1 1 1 0
0 0 0 0 0 0 0 0 0 0 0 0 0 0 0 0 0 0 0 0 1 1 1 1 2 2 2 2 2 2 2 2 2 2 2 2 2 2 3 3 2 2 1 1 1 1 1 1 0
0 0 0 0 0 0 0 0 0 0 0 0 0 0 0 0 1 1 1 1 1 1 1 1 2 2 2 3 2 2 2 2 2 2 2 2 2 3 3 3 3 2 2 1 1 1 1 0 0
0 0 0 0 0 0 0 0 0 0 0 0 0 0 0 1 1 1 1 1 1 1 1 2 2 3 3 3 3 2 2 2 2 2 2 2 2 3 3 3 3 2 1 1 1 1 0 0 0
0 0 0 0 0 0 0 0 0 0 0 0 0 0 1 1 1 1 1 1 1 1 1 2 3 3 3 3 3 3 2 2 2 2 2 2 2 3 3 3 3 2 1 1 1 1 0 0 0
0 0 0 0 0 0 0 0 0 0 0 0 0 1 1 2 2 1 1 1 1 1 2 3 3 3 4 3 3 3 3 2 2 2 2 2 2 2 3 3 3 2 1 1 1 1 0 0 0
0 0 0 0 0 0 0 0 0 0 0 0 0 1 2 2 2 1 1 1 1 1 2 3 3 3 4 4 3 3 3 3 2 3 2 2 2 2 2 3 2 2 1 1 1 1 0 0 0
0 0 0 0 0 0 0 0 0 0 0 0 0 1 2 2 2 1 1 1 1 1 2 3 3 3 4 4 3 3 3 3 2 2 2 2 1 1 1 2 2 1 1 1 1 1 0 0 0
0 0 0 0 0 0 0 0 0 0 0 0 0 1 2 2 2 2 1 1 1 1 2 3 3 3 3 3 3 3 3 3 2 2 1 1 1 1 1 1 1 1 0 0 0 0 0 0 0
0 0 0 0 0 0 0 0 0 0 0 0 0 1 1 2 2 2 1 1 1 1 1 2 3 3 3 3 4 4 3 2 1 1 1 1 0 0 0 0 0 0 0 0 0 0 0 0 0
0 0 0 0 0 0 0 0 0 0 0 0 0 0 1 2 2 2 1 1 1 0 1 1 2 3 3 3 4 3 3 2 1 1 1 0 0 0 0 0 0 0 0 0 0 0 0 0 0
0 0 0 0 0 0 0 0 0 0 0 0 0 0 0 1 1 1 1 1 1 1 1 1 2 3 3 3 4 3 2 2 2 1 1 1 0 0 0 0 0 0 0 0 0 0 0 0 0
0 0 0 0 0 0 0 0 0 0 0 0 0 0 0 0 1 1 1 1 1 1 1 1 2 2 3 3 3 3 2 2 2 1 1 1 0 0 0 0 0 0 0 0 0 0 0 0 0
0 0 0 0 0 0 0 0 0 0 0 0 0 0 0 0 0 0 1 1 1 1 1 1 1 2 3 3 3 3 2 2 2 2 1 1 0 0 0 0 0 0 0 0 0 0 0 0 0
0 0 0 0 0 0 0 0 0 0 0 0 0 0 0 0 0 0 0 0 1 1 1 1 1 2 2 3 3 3 3 2 2 1 1 1 0 0 0 0 0 0 0 0 0 0 0 0 0
0 0 0 0 0 0 0 0 0 0 0 0 0 0 0 0 0 0 0 0 1 1 1 1 1 2 2 3 3 3 3 2 2 1 1 0 0 0 0 0 0 0 0 0 0 0 0 0 0
0 0 0 0 0 0 0 0 0 0 0 0 0 0 0 0 0 0 0 0 0 1 2 2 2 2 2 3 3 3 3 2 1 1 0 0 0 0 0 0 0 0 0 0 0 0 0 0 0
0 0 0 0 0 0 0 0 0 0 0 0 0 0 0 0 0 0 0 0 0 1 1 2 2 2 2 2 3 3 2 2 1 0 0 0 0 0 0 0 0 0 0 0 0 0 0 0 0
0 0 0 0 0 0 0 0 0 0 0 0 0 0 0 0 0 0 0 0 0 0 1 2 2 2 2 2 2 2 2 1 1 0 0 0 0 0 0 0 0 0 0 0 0 0 0 0 0
0 0 0 0 0 0 0 0 0 0 0 0 0 0 0 0 0 0 0 0 0 0 0 1 2 2 2 2 2 2 1 1 1 0 0 0 0 0 0 0 0 0 0 0 0 0 0 0 0
0 0 0 0 0 0 0 0 0 0 0 0 0 0 0 0 0 0 0 0 0 0 0 0 1 2 2 2 2 2 1 1 1 0 0 0 0 0 0 0 0 0 0 0 0 0 0 0 0
0 0 0 0 0 0 0 0 0 0 0 0 0 0 0 0 0 0 0 0 0 0 0 0 0 1 2 2 2 2 1 1 1 0 0 0 0 0 0 0 0 0 0 0 0 0 0 0 0
0 0 0 0 0 0 0 0 0 0 0 0 0 0 0 0 0 0 0 0 0 0 0 0 0 1 1 2 2 2 2 1 1 0 0 0 0 0 0 0 0 0 0 0 0 0 0 0 0
0 0 0 0 0 0 0 0 0 0 0 0 0 0 0 0 0 0 0 0 0 0 0 0 0 0 1 1 2 2 2 1 1 0 0 0 0 0 0 0 0 0 0 0 0 0 0 0 0
0 0 0 0 0 0 0 0 0 0 0 0 0 0 0 0 0 0 0 0 0 0 0 0 0 0 0 1 1 1 1 1 1 0 0 0 0 0 0 0 0 0 0 0 0 0 0 0 0
0 0 0 0 0 0 0 0 0 0 0 0 0 0 0 0 0 0 0 0 0 0 0 0 0 0 0 0 0 1 1 1 0 0 0 0 0 0 0 0 0 0 0 0 0 0 0 0 0
0 0 0 0 0 0 0 0 0 0 0 0 0 0 0 0 0 0 0 0 0 0 0 0 0 0 0 0 0 0 0 0 0 0 0 0 0 0 0 0 0 0 0 0 0 0 0 0 0
0 0 0 0 0 0 0 0 0 0 0 0 0 0 0 0 0 0 0 0 0 0 0 0 0 0 0 0 0 0 0 0 0 0 0 0 0 0 0 0 0 0 0 0 0 0 0 0 0
0 0 0 0 0 0 0 0 0 0 0 0 0 0 0 0 0 0 0 0 0 0 0 0 0 0 0 0 0 0 0 0 0 0 0 0 0 0 0 0 0 0 0 0 0 0 0 0 0
0 0 0 0 0 0 0 0 0 0 0 0 0 0 0 0 0 0 0 0 0 0 0 0 0 0 0 0 0 0 0 0 0 0 0 0 0 0 0 0 0 0 0 0 0 0 0 0 0
Wind_Speed
7 3 2 4 6 4 2 3 1 1 1 0 1 2 4 3 3 2 0 2 2 2 1 2 3 5 6 6 6 7 7 7 6 7 7 7 7 7 8 8 8 8 8 8 8 8 8 9 8
2 2 5 5 5 1 4 3 2 2 2 1 2 2 2 0 0 1 0 0 2 2 2 2 3 4 6 6 6 6 6 6 6 6 6 6 6 7 7 8 8 8 8 8 8 8 8 8 8
1 4 5 5 3 5 4 3 3 0 1 1 2 2 1 1 0 1 1 2 2 2 1 2 4 4 5 6 6 6 6 6 6 6 5 6 6 6 7 7 7 7 8 8 8 8 8 8 8
3 5 6 4 3 4 4 2 1 1 2 1 2 1 1 1 1 1 1 3 3 2 1 2 3 4 5 5 5 6 5 5 5 5 5 5 6 6 6 7 7 7 7 8 8 8 8 8 8
5 5 4 1 3 3 3 2 1 1 1 0 1 1 1 2 1 2 2 2 3 2 2 2 3 4 4 5 5 5 5 5 5 5 5 5 5 6 6 7 7 8 7 7 8 8 8 8 8
5 5 3 3 4 3 2 1 1 1 1 0 1 1 2 1 2 1 2 1 2 3 2 2 3 3 3 4 4 5 5 5 5 5 5 5 5 6 6 7 7 7 7 7 7 8 8 8 8
5 4 3 3 3 3 2 0 2 1 1 2 2 2 2 1 1 1 1 1 2 2 2 2 2 2 3 3 3 3 4 4 5 5 5 5 5 5 6 6 7 7 7 7 7 8 8 8 8
4 5 2 2 3 4 1 0 1 2 2 1 2 3 3 2 1 2 2 2 2 2 2 2 2 2 2 2 4 4 5 5 6 5 5 5 5 5 5 5 6 8 8 8 8 7 8 8 8
3 4 3 4 5 3 0 0 2 1 1 1 0 1 2 2 3 3 2 2 2 2 1 1 1 2 2 2 3 4 4 5 5 5 6 5 3 3 3 4 6 7 7 7 7 7 8 8 7
4 3 5 3 3 2 1 1 1 1 1 1 2 2 1 2 4 3 2 2 2 1 0 1 1 2 2 2 2 2 3 3 4 3 4 3 3 3 4 5 6 7 7 7 7 6 7 6 3
2 4 2 2 1 1 1 1 1 2 3 4 4 3 1 2 3 3 3 3 3 3 1 1 1 2 2 2 2 2 2 2 3 3 3 3 3 3 3 3 4 4 5 4 4 4 3 3 2
1 2 1 2 1 0 2 1 1 3 6 3 3 2 1 2 4 4 4 3 2 1 1 1 1 2 2 2 2 2 2 2 2 2 3 3 2 3 3 2 2 2 2 2 2 2 3 3 3
1 1 1 2 2 1 1 2 3 5 5 2 1 1 2 3 3 3 3 2 2 2 2 1 2 2 3 3 2 2 2 2 2 2 2 3 3 3 3 2 2 2 2 2 2 2 2 2 2
1 1 3 3 2 1 2 4 2 6 2 1 0 1 2 3 3 2 1 2 2 2 2 2 2 3 3 3 3 3 2 2 2 2 2 3 3 3 3 3 2 2 2 2 1 2 2 2 2
1 2 4 2 1 1 0 5 6 5 1 1 2 2 2 2 2 3 3 3 3 3 2 2 2 2 3 3 3 3 2 3 2 2 2 3 3 3 3 3 2 1 2 2 2 2 2 2 2
2 2 3 4 1 1 2 9 6 2 2 3 3 3 3 3 3 3 3 2 2 2 2 1 2 3 3 3 3 2 3 3 2 2 2 3 3 4 3 3 2 2 2 2 2 2 2 2 1
2 2 5 6 1 0 2 9 6 2 2 5 5 4 4 4 4 4 3 2 2 1 1 1 1 3 3 3 3 3 3 2 2 2 2 2 3 4 3 3 2 2 2 2 2 2 1 1 1
4 4 5 6 3 1 4 10 9 4 3 5 5 4 4 4 5 4 3 2 1 0 0 0 0 1 2 3 3 2 3 2 2 2 2 3 3 3 3 3 3 3 2 2 2 2 1 1 1
3 4 7 6 3 2 7 11 12 7 5 6 5 4 4 5 4 2 2 2 1 1 1 0 1 1 1 2 3 3 2 2 2 2 3 3 3 3 3 3 3 3 2 2 2 2 2 2 1
2 5 6 6 3 3 6 11 10 7 6 6 5 5 5 4 3 3 2 2 2 1 1 0 0 1 1 2 2 2 3 2 2 2 3 3 3 3 3 3 3 3 3 3 2 3 2 1 1
4 6 6 6 5 3 5 9 5 5 3 3 3 4 4 3 3 2 2 2 1 2 1 1 0 1 1 1 2 2 2 2 2 2 2 2 3 3 2 3 3 3 3 3 3 2 2 1 0
6 4 4 4 3 5 1 8 8 4 5 5 4 4 4 3 3 2 2 1 1 1 2 1 0 1 1 1 2 3 3 3 3 2 2 2 3 3 2 2 3 3 2 2 2 2 1 2 1
4 2 2 3 3 4 3 5 10 2 5 7 5 4 4 3 3 3 2 2 1 1 1 1 0 1 1 1 3 3 2 2 1 2 3 3 2 2 2 2 2 2 2 3 2 2 2 2 2
1 3 2 2 2 5 6 6 10 5 7 5 5 4 3 3 2 2 2 1 1 1 1 1 0 0 1 1 2 3 3 3 2 2 2 2 2 2 2 2 2 2 2 2 2 3 3 2 2
2 3 3 5 2 7 2 5 11 6 5 5 6 5 3 2 2 2 2 1 1 1 1 0 0 0 0 1 1 2 2 3 3 3 2 2 1 1 2 2 2 2 2 2 2 2 2 2 2
3 4 5 5 5 6 3 8 9 5 4 4 4 3 2 2 2 2 2 2 2 1 1 1 1 1 0 1 1 1 2 2 2 2 2 2 1 1 1 2 2 2 2 2 2 2 2 2 2
3 3 3 3 2 5 7 8 9 4 4 3 3 2 2 2 2 2 2 1 1 1 1 1 1 1 0 0 1 1 1 1 2 2 2 1 1 1 1 1 2 2 1 2 2 2 2 1 2
3 4 3 3 2 6 8 6 7 5 5 4 3 3 3 2 2 2 1 1 1 1 1 0 0 1 1 1 1 1 0 0 1 1 2 1 1 1 1 1 1 1 1 2 2 1 2 2 2
3 3 3 3 4 5 6 9 5 5 4 4 4 3 2 2 2 2 1 1 1 1 1 1 1 0 1 0 0 1 0 0 1 1 1 1 1 1 1 1 1 1 1 1 2 2 2 3 2
5 6 6 5 6 5 5 11 2 3 3 3 4 2 1 1 1 1 1 1 2 1 1 1 1 1 0 0 0 1 1 1 1 0 1 1 1 1 1 1 1 1 1 1 2 3 3 3 3
Wind_Direction
340 356 55 57 56 53 233 245 225 200 193 49 78 111 135 145 161 192 343 105 101 129 156 158 135 134 126 122 119 115 112 106 105 107 105 105 107 108 113 109 106 104 101 98 95 92 91 88 88
334 16 53 61 91 157 259 246 217 215 184 119 61 74 91 142 346 112 40 351 121 136 145 152 128 129 130 128 125 119 117 115 108 108 108 106 109 111 113 111 109 106 103 100 96 93 92 88 89
6 48 78 79 121 188 224 227 207 245 39 109 79 50 119 213 231 196 240 144 120 131 123 141 124 126 132 131 130 126 121 120 117 112 112 111 111 116 114 109 108 108 105 101 98 96 92 90 90
63 47 56 80 208 222 218 237 198 162 22 43 120 75 305 352 256 231 120 132 131 130 114 138 126 129 128 132 130 128 124 120 118 116 111 115 116 118 117 112 108 105 103 103 100 98 94 91 89
58 74 68 42 245 251 249 258 204 191 207 352 123 154 267 345 23 102 108 134 145 141 123 137 126 127 129 130 134 130 124 119 116 119 117 110 112 111 115 115 110 104 100 98 98 96 94 91 89
58 69 100 224 247 266 271 264 163 190 235 306 135 166 246 9 67 90 112 139 154 140 125 122 125 119 122 123 129 131 127 120 117 118 117 107 102 99 105 106 104 103 101 101 99 96 94 90 87
102 104 170 203 234 264 258 167 157 195 235 236 182 167 265 316 17 50 90 107 109 115 114 112 117 117 111 109 106 114 116 111 107 105 104 102 98 97 100 100 102 103 101 100 99 97 92 88 84
117 109 142 210 217 251 268 73 153 177 237 290 140 172 239 253 47 58 73 89 92 82 89 107 106 100 98 103 94 95 94 92 91 86 80 84 90 91 91 99 101 101 98 96 93 90 88 85 81
87 88 206 218 204 240 231 79 339 2 95 352 265 227 267 122 112 101 86 69 79 65 48 76 101 103 101 103 96 95 91 86 84 81 75 77 82 86 88 88 98 98 94 90 87 86 84 78 75
87 157 223 222 203 215 252 177 235 27 350 306 300 323 30 117 136 142 149 173 183 208 224 112 140 128 115 106 95 93 91 85 79 78 75 74 77 78 81 73 75 80 81 80 77 76 77 71 67
122 191 233 266 256 205 241 280 221 154 254 240 241 259 211 160 162 170 187 196 207 208 191 161 162 141 129 124 111 97 93 85 81 81 79 80 81 79 74 71 62 62 69 73 70 67 69 68 65
134 255 263 285 310 250 213 225 271 212 233 240 228 218 185 198 202 198 204 215 215 192 214 209 162 142 143 132 124 113 105 102 96 88 89 94 92 83 80 76 64 57 53 59 67 76 72 66 62
183 264 306 310 334 285 252 242 245 256 264 298 350 136 204 221 234 240 229 221 209 209 221 219 172 161 156 143 137 124 123 122 119 110 103 104 110 104 90 81 67 60 57 56 59 77 72 66 56
236 283 289 294 288 279 248 276 245 262 275 289 289 237 241 234 235 241 237 241 239 232 226 207 180 174 155 150 150 142 134 127 115 111 108 113 115 114 108 95 81 65 61 59 67 78 76 64 58
29 345 321 296 276 253 275 293 245 255 235 263 273 274 275 265 252 240 238 237 239 242 233 201 188 162 158 159 156 140 136 132 128 126 115 113 113 119 115 109 96 82 75 72 73 68 68 64 54
31 15 299 289 297 292 159 267 268 258 195 262 272 282 281 276 266 266 262 250 252 246 229 214 184 159 163 160 154 145 138 137 140 133 119 115 115 118 117 112 108 102 97 91 91 80 70 59 53
16 278 266 291 273 45 194 260 278 277 233 265 269 268 271 284 293 287 274 254 250 240 231 221 217 165 167 162 147 134 129 128 141 135 126 125 122 125 123 119 114 112 104 95 95 82 85 83 62
238 243 259 266 283 274 249 263 280 275 248 261 269 270 273 278 281 288 288 293 257 258 254 204 200 152 161 156 140 128 118 122 124 132 133 132 133 131 131 123 115 109 103 93 93 92 74 93 89
207 232 263 268 280 262 253 268 277 273 267 266 271 269 266 267 279 306 334 340 16 39 39 115 128 155 154 159 162 161 168 154 138 132 129 132 131 134 138 132 127 121 120 122 117 105 92 60 56
242 262 271 288 305 262 279 276 270 256 243 239 245 253 259 281 312 336 353 6 16 14 5 102 125 128 159 170 171 165 160 149 145 135 130 135 138 143 144 144 144 139 127 118 118 108 112 86 50
252 238 251 270 312 303 309 292 266 265 250 260 252 245 255 253 271 299 323 324 7 11 343 281 212 128 171 150 138 127 124 126 136 149 150 146 148 147 152 156 149 148 148 157 157 145 139 154 241
260 243 246 271 296 289 312 289 279 268 283 267 261 255 259 265 267 272 276 295 323 317 331 340 181 150 162 147 146 150 163 173 181 176 167 149 149 148 151 152 155 158 159 163 170 165 163 157 187
241 290 256 261 239 281 252 251 279 291 273 267 259 250 254 257 248 246 242 241 255 267 289 315 42 107 140 148 152 153 152 157 155 149 150 154 147 137 142 145 154 162 165 169 169 173 171 179 191
182 34 21 33 76 269 234 218 274 238 238 260 255 254 260 265 257 259 261 257 285 333 355 31 42 91 99 147 147 148 157 150 136 133 153 157 151 149 148 146 155 166 174 177 181 182 184 198 194
89 81 10 346 330 256 230 231 256 250 245 246 251 260 267 257 250 259 270 273 280 307 324 22 39 86 70 120 142 153 162 162 163 167 167 161 162 171 180 164 171 179 191 185 171 172 187 197 199
202 160 173 220 250 281 270 243 258 266 277 273 258 257 266 260 254 253 252 249 248 241 245 195 208 219 139 137 143 133 147 169 173 167 167 176 178 177 180 184 179 183 187 184 179 182 194 196 206
167 208 188 162 279 279 263 272 290 265 282 290 283 267 260 261 271 273 286 294 288 266 259 212 198 190 170 150 114 93 118 151 164 162 153 164 160 150 149 179 187 184 190 196 187 192 201 201 217
182 159 125 151 212 266 277 263 257 268 266 284 285 270 279 296 304 314 319 312 322 317 317 300 193 186 174 137 120 93 80 132 163 145 142 141 153 152 155 184 186 199 204 204 199 211 210 199 222
168 181 181 186 197 210 272 269 231 236 251 255 266 268 269 283 290 302 317 327 338 21 39 6 354 40 66 69 123 102 84 76 94 131 139 150 162 164 174 199 199 201 217 214 206 218 219 214 225
210 204 179 195 232 221 247 269 268 236 264 258 273 279 271 265 282 302 324 352 13 13 6 3 350 335 276 240 139 123 116 98 100 142 158 155 158 167 183 197 206 218 220 221 221 229 224 219 225